• Join FlightAware (Why Join?)
  • Login
  • US Flag GB Flag 
16:13 EDT


 

Airport Tracker/Info


-or-


 

Live Flight TrackerFlight Track Log ✈ FAO861 ✈ 26-Feb-2014 ✈ KLEX - KPIE

Flight Track Log - Related Links

Times and Time Zones

All times are in EST time to prevent confusion due to time zone crossing. See the FAO861 flight status page for this flight to view local times or setup timezone preferences in your user account.

Time Position Orientation Groundspeed Altitude Reporting Facility
EST Latitude Longitude Course Direction KTS MPH feet Rate Location/Type
09:43 38.0619 -84.5719 111° Southeast 189 217 33,000  Level Indianapolis Center
09:44 38.0406 -84.5014 87° East 247 284 5,600 -11,760 Descending Indianapolis Center
09:45 37.9528 -84.4808 170° South 282 325 8,800 2,820 Climbing Indianapolis Center
09:46 37.8694 -84.4542 166° South 318 366 11,500 2,340 Climbing Indianapolis Center
09:47 37.7725 -84.4256 167° South 348 400 13,600 2,280 Climbing Indianapolis Center
09:48 37.6486 -84.3881 167° South 383 441 16,200 2,220 Climbing Indianapolis Center
09:49 37.5389 -84.3569 167° South 398 458 18,200 2,040 Climbing Indianapolis Center
09:50 37.4269 -84.3244 167° South 407 468 20,500 2,040 Climbing Indianapolis Center
09:51 37.3147 -84.2928 167° South 408 470 22,500 1,740 Climbing Indianapolis Center
09:52 37.2014 -84.2606 167° South 413 475 24,200 1,680 Climbing Indianapolis Center
09:53 37.0672 -84.2222 167° South 419 482 26,000 1,500 Climbing Indianapolis Center
09:54 36.9517 -84.1886 167° South 424 488 27,400 1,200 Climbing Indianapolis Center
09:55 36.8353 -84.1558 167° South 425 489 28,600 960 Climbing Indianapolis Center
09:56 36.7164 -84.1225 167° South 431 496 29,500 960 Climbing Indianapolis Center
09:57 36.5978 -84.0900 168° South 434 499 30,600 1,020 Climbing Indianapolis Center
09:58 36.4597 -84.0500 167° South 436 502 31,700 900 Climbing Indianapolis Center
09:59 36.3403 -84.0164 167° South 436 502 32,500 600 Climbing Indianapolis Center
10:00 36.2206 -83.9831 167° South 436 502 33,000 240 Climbing Indianapolis Center
10:01 36.1000 -83.9539 169° South 441 507 33,000  Level Atlanta Center
10:02 35.9853 -83.9206 167° South 434 499 33,000  Level Atlanta Center
10:03 35.8664 -83.8875 167° South 434 499 33,000  Level Atlanta Center
10:04 35.7472 -83.8519 166° South 434 499 33,000  Level Atlanta Center
10:05 35.6431 -83.8217 167° South 434 499 33,000  Level Atlanta Center
10:06 35.5261 -83.7861 166° South 434 499 33,000  Level Atlanta Center
10:07 35.4069 -83.7508 166° South 434 499 33,000  Level Atlanta Center
10:08 35.2903 -83.7156 166° South 434 499 33,000  Level Atlanta Center
10:09 35.1733 -83.6806 166° South 434 499 33,000  Level Atlanta Center
10:10 35.0564 -83.6506 168° South 434 499 33,000  Level Atlanta Center
10:11 34.9372 -83.6131 166° South 434 499 33,000  Level Atlanta Center
10:12 34.8203 -83.5758 165° South 434 499 33,000  Level Atlanta Center
10:13 34.7033 -83.5486 169° South 434 499 33,000  Level Atlanta Center
10:14 34.5694 -83.5014 164° South 440 506 33,000  Level Atlanta Center
10:15 34.4525 -83.4694 167° South 445 512 33,000  Level Atlanta Center
10:16 34.3292 -83.4350 167° South 451 519 33,000  Level Atlanta Center
10:17 34.2081 -83.4058 169° South 451 519 33,000  Level Atlanta Center
10:18 34.0908 -83.3792 169° South 443 510 33,000  Level Atlanta Center
10:19 33.9761 -83.3500 168° South 426 490 33,000 -120 Level Atlanta Center
10:20 33.8611 -83.3233 169° South 426 490 32,800 -540 Descending Atlanta Center
10:21 33.7503 -83.2992 170° South 431 496 32,000 -900 Descending Atlanta Center
10:22 33.6333 -83.2728 169° South 431 496 31,100 -900 Descending Atlanta Center
10:23 33.5142 -83.2464 170° South 431 496 30,200 -600 Descending Atlanta Center
10:24 33.3950 -83.2178 169° South 431 496 30,000 -120 Descending Atlanta Center
10:25 33.2758 -83.1892 169° South 431 496 30,000  Level Atlanta Center
10:26 33.1525 -83.1606 169° South 431 496 30,000  Level Atlanta Center
10:27 33.0375 -83.1319 168° South 432 497 30,000  Level Atlanta Center
10:28 32.9181 -83.1033 169° South 432 497 30,000  Level Atlanta Center
10:29 32.7989 -83.0725 168° South 432 497 30,000  Level Atlanta Center
10:30 32.6839 -83.0492 170° South 427 491 30,000  Level Atlanta Center
10:31 32.5647 -83.0208 169° South 432 497 30,000  Level Atlanta Center
10:34 32.2772 -82.9539 169° South 443 510 30,000  Level Jacksonville Center
10:35 32.1539 -82.9244 169° South 449 517 30,000  Level Jacksonville Center
10:36 32.0328 -82.8950 168° South 449 517 30,000  Level Jacksonville Center
10:37 31.9097 -82.8681 169° South 449 517 30,000  Level Jacksonville Center
10:38 31.7886 -82.8411 169° South 449 517 30,000  Level Jacksonville Center
10:39 31.6656 -82.8144 170° South 449 517 30,000  Level Jacksonville Center
10:40 31.5422 -82.7828 168° South 449 517 30,000  Level Jacksonville Center
10:41 31.4064 -82.7564 171° South 449 517 30,000  Level Jacksonville Center
10:42 31.2833 -82.7297 170° South 449 517 30,000  Level Jacksonville Center
10:43 31.1600 -82.6983 168° South 449 517 30,000 -60 Level Jacksonville Center
10:44 31.0472 -82.6744 170° South 449 517 29,900  Descending Jacksonville Center
10:45 30.9261 -82.6503 170° South 449 517 30,000  Climbing Jacksonville Center
10:46 30.8028 -82.6242 170° South 449 517 29,900  Descending Jacksonville Center
10:47 30.6794 -82.5956 169° South 449 517 30,000  Climbing Jacksonville Center
10:48 30.5417 -82.5644 169° South 454 522 30,000  Level Jacksonville Center
10:49 30.4183 -82.5361 169° South 454 522 30,000 -60 Level Jacksonville Center
10:50 30.2953 -82.5125 171° South 454 522 29,900 -240 Descending Jacksonville Center
10:51 30.1697 -82.4842 169° South 454 522 29,600 -540 Descending Jacksonville Center
10:52 30.0486 -82.4583 170° South 449 517 28,900 -900 Descending Jacksonville Center
10:53 29.9400 -82.4347 169° South 449 517 27,900 -1,140 Descending Jacksonville Center
10:54 29.8208 -82.4067 168° South 444 511 26,600 -1,200 Descending Jacksonville Center
10:55 29.6997 -82.3833 170° South 444 511 25,600 -1,380 Descending Jacksonville Center
10:56 29.5786 -82.3578 170° South 450 518 24,000 -1,560 Descending Jacksonville Center
10:57 29.4533 -82.3417 174° South 450 518 22,600 -1,740 Descending Jacksonville Center
10:58 29.3278 -82.3256 174° South 455 524 20,600 -1,920 Descending Jacksonville Center
10:59 29.2108 -82.3144 175° South 449 517 18,800 -2,040 Descending Jacksonville Center
11:00 29.1003 -82.3033 175° South 429 494 16,500 -1,800 Descending Jacksonville Center
11:01 28.9894 -82.2872 173° South 408 470 15,300 -1,260 Descending Jacksonville Center
11:02 28.8872 -82.2761 175° South 397 457 14,100 -840 Descending Jacksonville Center
11:04 28.7167 -82.2667 177° South 275 316 13,000 -720 Descending Tampa TRACON
11:05 28.6333 -82.2667 180° South 288 331 12,200 -1,380 Descending Tampa TRACON
11:06 28.5500 -82.2667 180° South 305 351 10,300 -1,080 Descending Tampa TRACON
11:07 28.5167 -82.3333 240° Southwest 262 302 10,000 -180 Descending Tampa TRACON
11:07 28.5167 -82.4000 270° West 251 289 10,000  Level Tampa TRACON
11:08 28.5000 -82.4667 254° West 216 249 10,000 -900 Level Tampa TRACON
11:09 28.4833 -82.5333 254° West 207 238 8,300 -1,680 Descending Tampa TRACON
11:11 28.4667 -82.6000 254° West 203 234 6,500 -1,680 Descending Tampa TRACON
11:12 28.4500 -82.6500 249° West 178 205 4,800 -1,320 Descending Tampa TRACON
11:13 28.4000 -82.6667 196° South 193 222 4,000 -480 Descending Tampa TRACON
11:14 28.3500 -82.6833 196° South 163 188 3,900 -540 Descending Tampa TRACON
11:15 28.3167 -82.7167 221° Southwest 168 193 3,000 -480 Descending Tampa TRACON
11:15 28.2833 -82.7333 204° Southwest 168 193 3,000  Level Tampa TRACON
11:16 28.2333 -82.7500 196° South 162 186 3,000  Level Tampa TRACON
11:17 28.2000 -82.7333 156° South 166 191 3,000 -60 Level Tampa TRACON
11:18 28.1500 -82.7333 180° South 165 190 2,900 -240 Descending Tampa TRACON
11:20 28.0833 -82.7167 168° South 185 213 2,600 -240 Descending Tampa TRACON
11:21 28.0500 -82.7167 180° South 135 155 2,500 -420 Descending Tampa TRACON
11:21 28.0167 -82.7000 156° South 131 151 1,900 -780 Descending Tampa TRACON
11:22 27.9833 -82.7000 180° South 137 158 1,100 -840 Descending Tampa TRACON
11:23 27.9333 -82.7000 180° South 138 159 300 -840 Descending Tampa TRACON
11:25 27.9100 -82.6875 North  Level Estimated
11:32 27.9100 -82.6875 North  Level Estimated
11:33 27.9100 -82.6875 North  Level Estimated